Time,TemperatureF,DewpointF,PressureIn,WindDirection,WindDirectionDegrees,WindSpeedMPH,WindSpeedGustMPH,Humidity,HourlyPrecipIn,Conditions,Clouds,dailyrainin,SolarRadiationWatts/m^2,SoftwareType,DateUTC
2013-05-17 00:01:00,63.7,57.8,29.91,West,265,0.0,0.0,81,0.00,,,0.00,0.00,VWS V14.01,2013-05-17 04:01:00,
2013-05-17 00:02:00,63.6,57.7,29.91,West,264,0.0,0.0,81,0.00,,,0.00,0.00,VWS V14.01,2013-05-17 04:02:00,
2013-05-17 00:03:00,63.6,57.7,29.91,West,264,0.0,0.0,81,0.00,,,0.00,0.00,VWS V14.01,2013-05-17 04:03:00,
2013-05-17 00:08:00,63.6,57.7,29.91,West,264,0.0,0.0,81,0.00,,,0.00,0.00,VWS V14.01,2013-05-17 04:08:00,
2013-05-17 00:14:00,63.5,57.6,29.91,West,265,0.0,0.0,81,0.00,,,0.00,0.00,VWS V14.01,2013-05-17 04:14:00,
2013-05-17 00:19:00,63.3,57.4,29.91,West,264,0.0,0.0,81,0.00,,,0.00,0.00,VWS V14.01,2013-05-17 04:19:00,
2013-05-17 00:24:00,63.2,57.3,29.91,West,264,0.0,0.0,81,0.00,,,0.00,0.00,VWS V14.01,2013-05-17 04:24:00,
2013-05-17 00:29:00,63.0,57.4,29.91,West,264,0.0,0.0,82,0.00,,,0.00,0.00,VWS V14.01,2013-05-17 04:29:00,
2013-05-17 00:34:00,62.9,57.0,29.91,West,265,0.0,0.0,81,0.00,,,0.00,0.00,VWS V14.01,2013-05-17 04:34:00,
2013-05-17 00:39:00,62.6,56.7,29.91,West,265,0.0,0.0,81,0.00,,,0.00,0.00,VWS V14.01,2013-05-17 04:39:00,
2013-05-17 00:44:00,62.5,56.9,29.91,West,265,0.0,0.0,82,0.00,,,0.00,0.00,VWS V14.01,2013-05-17 04:44:00,
2013-05-17 00:49:00,62.3,57.1,29.91,West,264,0.0,0.0,83,0.00,,,0.00,0.00,VWS V14.01,2013-05-17 04:49:00,
2013-05-17 00:54:00,62.1,57.2,29.91,West,265,0.0,0.0,84,0.00,,,0.00,0.00,VWS V14.01,2013-05-17 04:54:00,
2013-05-17 00:59:00,61.9,57.0,29.91,West,265,0.0,0.0,84,0.00,,,0.00,0.00,VWS V14.01,2013-05-17 04:59:00,
2013-05-17 01:04:00,61.8,57.2,29.91,West,265,0.0,0.0,85,0.00,,,0.00,0.00,VWS V14.01,2013-05-17 05:04:00,
2013-05-17 01:09:00,61.6,57.0,29.91,West,265,0.0,0.0,85,0.00,,,0.00,0.00,VWS V14.01,2013-05-17 05:09:00,
2013-05-17 01:15:00,61.4,56.9,29.91,West,265,0.0,0.0,85,0.00,,,0.00,0.00,VWS V14.01,2013-05-17 05:15:00,
2013-05-17 01:20:00,61.2,56.7,29.91,West,264,0.0,0.0,85,0.00,,,0.00,0.00,VWS V14.01,2013-05-17 05:20:00,
2013-05-17 01:25:00,61.0,56.5,29.91,West,264,0.0,0.0,85,0.00,,,0.00,0.00,VWS V14.01,2013-05-17 05:25:00,
2013-05-17 01:30:00,60.8,56.3,29.91,West,265,0.0,0.0,85,0.00,,,0.00,0.00,VWS V14.01,2013-05-17 05:30:00,
2013-05-17 01:35:00,60.5,56.0,29.91,West,265,0.0,0.0,85,0.00,,,0.00,0.00,VWS V14.01,2013-05-17 05:35:00,
2013-05-17 01:40:00,60.4,56.2,29.91,West,265,0.0,0.0,86,0.00,,,0.00,0.00,VWS V14.01,2013-05-17 05:40:00,
2013-05-17 01:45:00,60.3,56.4,29.91,West,264,0.0,0.0,87,0.00,,,0.00,0.00,VWS V14.01,2013-05-17 05:45:00,
2013-05-17 01:50:00,60.2,56.3,29.91,West,265,0.0,0.0,87,0.00,,,0.00,0.00,VWS V14.01,2013-05-17 05:50:00,
2013-05-17 01:55:00,60.1,56.2,29.91,West,264,0.0,0.0,87,0.00,,,0.00,0.00,VWS V14.01,2013-05-17 05:55:00,
2013-05-17 02:00:00,59.8,55.9,29.90,West,265,0.0,0.0,87,0.00,,,0.00,0.00,VWS V14.01,2013-05-17 06:00:00,
2013-05-17 02:05:00,59.7,56.2,29.91,West,265,0.0,0.0,88,0.00,,,0.00,0.00,VWS V14.01,2013-05-17 06:05:00,
2013-05-17 02:10:00,59.6,56.0,29.91,West,264,0.0,0.0,88,0.00,,,0.00,0.00,VWS V14.01,2013-05-17 06:10:00,
2013-05-17 02:15:00,59.3,55.8,29.91,West,265,0.0,0.0,88,0.00,,,0.00,0.00,VWS V14.01,2013-05-17 06:15:00,
2013-05-17 02:20:00,59.0,55.5,29.91,West,265,0.0,0.0,88,0.00,,,0.00,0.00,VWS V14.01,2013-05-17 06:20:00,
2013-05-17 02:25:00,59.0,55.5,29.91,West,265,0.0,0.0,88,0.00,,,0.00,0.00,VWS V14.01,2013-05-17 06:25:00,
2013-05-17 02:31:00,58.7,55.2,29.91,West,265,0.0,0.0,88,0.00,,,0.00,0.00,VWS V14.01,2013-05-17 06:31:00,
2013-05-17 02:36:00,58.4,54.9,29.91,West,264,0.0,0.0,88,0.00,,,0.00,0.00,VWS V14.01,2013-05-17 06:36:00,
2013-05-17 02:41:00,58.2,55.0,29.91,West,265,0.0,0.0,89,0.00,,,0.00,0.00,VWS V14.01,2013-05-17 06:41:00,
2013-05-17 02:46:00,58.0,54.8,29.91,West,265,0.0,0.0,89,0.00,,,0.00,0.00,VWS V14.01,2013-05-17 06:46:00,
2013-05-17 02:51:00,57.8,54.9,29.91,West,265,0.0,0.0,90,0.00,,,0.00,0.00,VWS V14.01,2013-05-17 06:51:00,
2013-05-17 02:56:00,57.7,54.8,29.91,West,265,0.0,0.0,90,0.00,,,0.00,0.00,VWS V14.01,2013-05-17 06:56:00,
2013-05-17 03:01:00,57.6,55.0,29.91,West,264,0.0,0.0,91,0.00,,,0.00,0.00,VWS V14.01,2013-05-17 07:01:00,
2013-05-17 03:06:00,57.5,54.9,29.91,West,264,0.0,0.0,91,0.00,,,0.00,0.00,VWS V14.01,2013-05-17 07:06:00,
2013-05-17 03:11:00,57.3,54.7,29.91,West,264,0.0,0.0,91,0.00,,,0.00,0.00,VWS V14.01,2013-05-17 07:11:00,
2013-05-17 03:16:00,57.2,54.6,29.92,West,265,0.0,0.0,91,0.00,,,0.00,0.00,VWS V14.01,2013-05-17 07:16:00,
2013-05-17 03:21:00,57.0,54.4,29.92,West,264,0.0,0.0,91,0.00,,,0.00,0.00,VWS V14.01,2013-05-17 07:21:00,
2013-05-17 03:27:00,56.9,54.6,29.92,West,264,0.0,0.0,92,0.00,,,0.00,0.00,VWS V14.01,2013-05-17 07:27:00,
2013-05-17 03:32:00,56.8,54.5,29.92,West,265,0.0,0.0,92,0.00,,,0.00,0.00,VWS V14.01,2013-05-17 07:32:00,
2013-05-17 03:37:00,56.6,54.3,29.92,West,265,0.0,0.0,92,0.00,,,0.00,0.00,VWS V14.01,2013-05-17 07:37:00,
2013-05-17 03:42:00,56.5,54.2,29.92,West,264,0.0,0.0,92,0.00,,,0.00,0.00,VWS V14.01,2013-05-17 07:42:00,
2013-05-17 03:47:00,56.3,54.0,29.93,West,265,0.0,0.0,92,0.00,,,0.00,0.00,VWS V14.01,2013-05-17 07:47:00,
2013-05-17 03:52:00,56.0,53.4,29.93,West,265,0.0,0.0,91,0.00,,,0.00,0.00,VWS V14.01,2013-05-17 07:52:00,
2013-05-17 03:57:00,55.8,53.2,29.93,West,265,0.0,0.0,91,0.00,,,0.00,0.00,VWS V14.01,2013-05-17 07:57:00,
2013-05-17 04:02:00,55.6,53.0,29.93,West,265,0.0,0.0,91,0.00,,,0.00,0.00,VWS V14.01,2013-05-17 08:02:00,
2013-05-17 04:07:00,55.5,53.2,29.93,West,264,0.0,0.0,92,0.00,,,0.00,0.00,VWS V14.01,2013-05-17 08:07:00,
2013-05-17 04:12:00,55.3,52.7,29.93,West,265,0.0,0.0,91,0.00,,,0.00,0.00,VWS V14.01,2013-05-17 08:12:00,
2013-05-17 04:17:00,55.1,52.5,29.93,West,265,0.0,0.0,91,0.00,,,0.00,0.00,VWS V14.01,2013-05-17 08:17:00,
2013-05-17 04:22:00,54.9,52.3,29.94,West,264,0.0,0.0,91,0.00,,,0.00,0.00,VWS V14.01,2013-05-17 08:22:00,
2013-05-17 04:28:00,54.8,52.5,29.94,West,265,0.0,0.0,92,0.00,,,0.00,0.00,VWS V14.01,2013-05-17 08:28:00,
2013-05-17 04:33:00,54.8,52.5,29.94,West,265,0.0,0.0,92,0.00,,,0.00,0.00,VWS V14.01,2013-05-17 08:33:00,
2013-05-17 04:38:00,54.8,52.8,29.94,West,265,0.0,0.0,93,0.00,,,0.00,0.00,VWS V14.01,2013-05-17 08:38:00,
2013-05-17 04:43:00,54.9,52.9,29.94,West,265,0.0,0.0,93,0.00,,,0.00,0.00,VWS V14.01,2013-05-17 08:43:00,
2013-05-17 04:48:00,55.3,53.6,29.95,West,264,0.0,1.0,94,0.00,,,0.00,0.00,VWS V14.01,2013-05-17 08:48:00,
2013-05-17 04:53:00,56.1,54.7,29.95,NNW,340,0.0,1.0,95,0.00,,,0.00,0.00,VWS V14.01,2013-05-17 08:53:00,
2013-05-17 04:58:00,56.8,55.4,29.95,NNW,347,0.0,3.0,95,0.00,,,0.00,0.00,VWS V14.01,2013-05-17 08:58:00,
2013-05-17 05:03:00,57.2,56.1,29.96,NNW,348,0.0,0.0,96,0.00,,,0.00,0.00,VWS V14.01,2013-05-17 09:03:00,
2013-05-17 05:08:00,57.3,55.9,29.96,NNW,348,0.0,0.0,95,0.00,,,0.00,0.00,VWS V14.01,2013-05-17 09:08:00,
2013-05-17 05:13:00,57.4,56.0,29.97,NNW,348,0.0,0.0,95,0.00,,,0.00,0.00,VWS V14.01,2013-05-17 09:13:00,
2013-05-17 05:18:00,57.2,55.5,29.97,NNW,348,0.0,0.0,94,0.00,,,0.00,0.00,VWS V14.01,2013-05-17 09:18:00,
2013-05-17 05:23:00,56.8,55.1,29.97,NNW,348,0.0,0.0,94,0.00,,,0.00,0.00,VWS V14.01,2013-05-17 09:23:00,
2013-05-17 05:29:00,56.5,54.8,29.98,NNW,348,0.0,0.0,94,0.00,,,0.00,0.00,VWS V14.01,2013-05-17 09:29:00,
2013-05-17 05:34:00,56.2,54.5,29.98,NNW,348,0.0,0.0,94,0.00,,,0.00,0.00,VWS V14.01,2013-05-17 09:34:00,
2013-05-17 05:39:00,56.0,54.3,29.98,NNW,348,0.0,0.0,94,0.00,,,0.00,0.00,VWS V14.01,2013-05-17 09:39:00,
2013-05-17 05:44:00,55.6,53.6,29.98,NNW,348,0.0,0.0,93,0.00,,,0.00,0.00,VWS V14.01,2013-05-17 09:44:00,
2013-05-17 05:49:00,55.3,53.3,29.99,NNW,348,0.0,0.0,93,0.00,,,0.00,0.00,VWS V14.01,2013-05-17 09:49:00,
2013-05-17 05:54:00,55.1,53.1,29.99,NNW,348,0.0,0.0,93,0.00,,,0.00,0.00,VWS V14.01,2013-05-17 09:54:00,
2013-05-17 05:59:00,54.9,52.9,30.00,NNW,348,0.0,0.0,93,0.00,,,0.00,5.00,VWS V14.01,2013-05-17 09:59:00,
2013-05-17 06:04:00,54.7,52.7,30.00,NNW,348,0.0,0.0,93,0.00,,,0.00,7.00,VWS V14.01,2013-05-17 10:04:00,
2013-05-17 06:09:00,54.5,52.5,30.00,NNW,348,0.0,0.0,93,0.00,,,0.00,12.00,VWS V14.01,2013-05-17 10:09:00,
2013-05-17 06:14:00,54.3,52.3,30.01,NNW,348,0.0,0.0,93,0.00,,,0.00,14.00,VWS V14.01,2013-05-17 10:14:00,
2013-05-17 06:19:00,54.2,52.2,30.01,NNW,348,0.0,0.0,93,0.00,,,0.00,18.00,VWS V14.01,2013-05-17 10:19:00,
2013-05-17 06:24:00,54.1,52.4,30.02,NNW,348,0.0,0.0,94,0.00,,,0.00,21.00,VWS V14.01,2013-05-17 10:24:00,
2013-05-17 06:30:00,54.0,52.3,30.02,NNW,348,0.0,0.0,94,0.00,,,0.00,25.00,VWS V14.01,2013-05-17 10:30:00,
2013-05-17 06:35:00,53.9,52.2,30.02,NNW,348,0.0,0.0,94,0.00,,,0.00,28.00,VWS V14.01,2013-05-17 10:35:00,
2013-05-17 06:40:00,53.9,52.2,30.02,NNW,348,0.0,0.0,94,0.00,,,0.00,30.00,VWS V14.01,2013-05-17 10:40:00,
2013-05-17 06:45:00,54.0,52.3,30.03,NNW,348,0.0,0.0,94,0.00,,,0.00,33.00,VWS V14.01,2013-05-17 10:45:00,
2013-05-17 06:50:00,54.1,52.7,30.03,NNW,348,0.0,0.0,95,0.00,,,0.00,35.00,VWS V14.01,2013-05-17 10:50:00,
2013-05-17 06:55:00,54.3,52.9,30.03,NNW,348,0.0,0.0,95,0.00,,,0.00,37.00,VWS V14.01,2013-05-17 10:55:00,
2013-05-17 07:00:00,54.4,53.0,30.03,NNW,348,0.0,0.0,95,0.00,,,0.00,39.00,VWS V14.01,2013-05-17 11:00:00,
2013-05-17 07:05:00,54.6,53.5,30.04,NNW,348,0.0,0.0,96,0.00,,,0.00,40.00,VWS V14.01,2013-05-17 11:05:00,
2013-05-17 07:10:00,54.8,53.7,30.04,WNW,299,0.0,0.0,96,0.00,,,0.00,44.00,VWS V14.01,2013-05-17 11:10:00,
2013-05-17 07:15:00,55.0,53.9,30.04,WNW,300,0.0,0.0,96,0.00,,,0.00,62.00,VWS V14.01,2013-05-17 11:15:00,
2013-05-17 07:20:00,55.4,54.3,30.05,WNW,300,0.0,0.0,96,0.00,,,0.00,141.00,VWS V14.01,2013-05-17 11:20:00,
2013-05-17 07:25:00,55.8,55.0,30.05,WNW,299,0.0,0.0,97,0.00,,,0.00,174.00,VWS V14.01,2013-05-17 11:25:00,
2013-05-17 07:30:00,56.3,55.5,30.05,WNW,299,0.0,0.0,97,0.00,,,0.00,183.00,VWS V14.01,2013-05-17 11:30:00,
2013-05-17 07:35:00,57.0,56.2,30.06,WNW,300,0.0,0.0,97,0.00,,,0.00,190.00,VWS V14.01,2013-05-17 11:35:00,
2013-05-17 07:40:00,57.6,56.8,30.06,WNW,299,0.0,0.0,97,0.00,,,0.00,195.00,VWS V14.01,2013-05-17 11:40:00,
2013-05-17 07:45:00,58.3,57.7,30.06,WNW,299,0.0,0.0,98,0.00,,,0.00,197.00,VWS V14.01,2013-05-17 11:45:00,
2013-05-17 07:50:00,59.0,58.4,30.06,WNW,299,0.0,0.0,98,0.00,,,0.00,193.00,VWS V14.01,2013-05-17 11:50:00,
2013-05-17 07:55:00,59.5,58.9,30.06,WNW,300,0.0,0.0,98,0.00,,,0.00,181.00,VWS V14.01,2013-05-17 11:55:00,
2013-05-17 08:00:00,60.1,59.5,30.06,WNW,300,0.0,1.0,98,0.00,,,0.00,165.00,VWS V14.01,2013-05-17 12:00:00,
2013-05-17 08:05:00,60.4,59.5,30.06,South,173,0.0,2.0,97,0.00,,,0.00,155.00,VWS V14.01,2013-05-17 12:05:00,
2013-05-17 08:10:00,61.0,60.2,30.06,South,171,0.0,1.0,97,0.00,,,0.00,123.00,VWS V14.01,2013-05-17 12:10:00,
2013-05-17 08:15:00,61.9,60.8,30.06,South,171,0.0,1.0,96,0.00,,,0.00,132.00,VWS V14.01,2013-05-17 12:15:00,
2013-05-17 08:20:00,62.6,61.2,30.06,South,171,0.0,1.0,95,0.00,,,0.00,160.00,VWS V14.01,2013-05-17 12:20:00,
2013-05-17 08:25:00,63.5,61.4,30.06,South,171,0.0,0.0,93,0.00,,,0.00,199.00,VWS V14.01,2013-05-17 12:25:00,
2013-05-17 08:30:00,64.2,61.5,30.06,South,171,0.0,0.0,91,0.00,,,0.00,230.00,VWS V14.01,2013-05-17 12:30:00,
2013-05-17 08:36:00,64.9,61.3,30.06,South,171,0.0,0.0,88,0.00,,,0.00,279.00,VWS V14.01,2013-05-17 12:36:00,
2013-05-17 08:41:00,65.7,61.4,30.06,South,176,0.0,0.0,86,0.00,,,0.00,311.00,VWS V14.01,2013-05-17 12:41:00,
2013-05-17 08:46:00,66.2,61.2,30.06,South,176,0.0,0.0,84,0.00,,,0.00,336.00,VWS V14.01,2013-05-17 12:46:00,
2013-05-17 08:51:00,66.8,61.1,30.07,NW,313,0.0,1.0,82,0.00,,,0.00,353.00,VWS V14.01,2013-05-17 12:51:00,
2013-05-17 08:56:00,67.4,61.7,30.07,NW,315,0.0,0.0,82,0.00,,,0.00,371.00,VWS V14.01,2013-05-17 12:56:00,
2013-05-17 09:01:00,67.6,61.2,30.07,NNW,345,3.0,3.0,80,0.00,,,0.00,387.00,VWS V14.01,2013-05-17 13:01:00,
2013-05-17 09:06:00,67.7,61.3,30.06,North,355,0.0,0.0,80,0.00,,,0.00,401.00,VWS V14.01,2013-05-17 13:06:00,
2013-05-17 09:11:00,68.1,61.3,30.06,North,355,0.0,0.0,79,0.00,,,0.00,415.00,VWS V14.01,2013-05-17 13:11:00,
2013-05-17 09:16:00,68.6,61.8,30.07,NNW,330,1.0,3.0,79,0.00,,,0.00,429.00,VWS V14.01,2013-05-17 13:16:00,
2013-05-17 09:21:00,68.9,61.4,30.07,NNW,331,1.0,1.0,77,0.00,,,0.00,434.00,VWS V14.01,2013-05-17 13:21:00,
2013-05-17 09:26:00,69.2,62.1,30.06,NNW,331,1.0,1.0,78,0.00,,,0.00,431.00,VWS V14.01,2013-05-17 13:26:00,
2013-05-17 09:31:00,69.4,61.1,30.07,NNW,329,0.0,0.0,75,0.00,,,0.00,434.00,VWS V14.01,2013-05-17 13:31:00,
2013-05-17 09:37:00,69.7,60.3,30.07,NNW,329,0.0,0.0,72,0.00,,,0.00,439.00,VWS V14.01,2013-05-17 13:37:00,
2013-05-17 09:42:00,69.9,60.9,30.07,NNW,329,0.0,0.0,73,0.00,,,0.00,443.00,VWS V14.01,2013-05-17 13:42:00,
2013-05-17 09:47:00,70.3,60.1,30.07,NNW,329,0.0,1.0,70,0.00,,,0.00,454.00,VWS V14.01,2013-05-17 13:47:00,
2013-05-17 09:52:00,70.8,60.5,30.07,West,268,1.0,3.0,70,0.00,,,0.00,464.00,VWS V14.01,2013-05-17 13:52:00,
2013-05-17 09:57:00,71.1,60.8,30.06,West,268,0.0,0.0,70,0.00,,,0.00,469.00,VWS V14.01,2013-05-17 13:57:00,
2013-05-17 10:02:00,71.3,61.4,30.06,West,268,0.0,0.0,71,0.00,,,0.00,485.00,VWS V14.01,2013-05-17 14:02:00,
2013-05-17 10:07:00,71.8,61.9,30.06,SW,216,0.0,1.0,71,0.00,,,0.00,499.00,VWS V14.01,2013-05-17 14:07:00,
2013-05-17 10:12:00,72.2,61.1,30.06,East,82,0.0,1.0,68,0.00,,,0.00,526.00,VWS V14.01,2013-05-17 14:12:00,
2013-05-17 10:17:00,72.8,60.8,30.06,WNW,300,0.0,1.0,66,0.00,,,0.00,555.00,VWS V14.01,2013-05-17 14:17:00,
2013-05-17 10:22:00,72.9,60.9,30.06,NNW,333,0.0,6.0,66,0.00,,,0.00,571.00,VWS V14.01,2013-05-17 14:22:00,
2013-05-17 10:27:00,72.6,61.0,30.06,WNW,296,0.0,4.0,67,0.00,,,0.00,587.00,VWS V14.01,2013-05-17 14:27:00,
2013-05-17 10:33:00,72.5,61.8,30.06,NNW,347,0.0,1.0,69,0.00,,,0.00,585.00,VWS V14.01,2013-05-17 14:33:00,
2013-05-17 10:38:00,72.8,61.6,30.06,SE,128,0.0,1.0,68,0.00,,,0.00,591.00,VWS V14.01,2013-05-17 14:38:00,
2013-05-17 10:43:00,72.8,61.2,30.06,SSE,163,0.0,1.0,67,0.00,,,0.00,580.00,VWS V14.01,2013-05-17 14:43:00,
2013-05-17 10:48:00,73.1,61.5,30.06,South,175,0.0,1.0,67,0.00,,,0.00,605.00,VWS V14.01,2013-05-17 14:48:00,
2013-05-17 10:53:00,73.7,61.2,30.06,NNW,346,2.0,6.0,65,0.00,,,0.00,591.00,VWS V14.01,2013-05-17 14:53:00,
2013-05-17 10:58:00,73.7,60.3,30.06,NW,324,1.0,5.0,63,0.00,,,0.00,571.00,VWS V14.01,2013-05-17 14:58:00,
2013-05-17 11:03:00,73.7,60.3,30.06,WNW,296,1.0,6.0,63,0.00,,,0.00,582.00,VWS V14.01,2013-05-17 15:03:00,
2013-05-17 11:08:00,73.6,59.8,30.07,SW,226,0.0,5.0,62,0.00,,,0.00,587.00,VWS V14.01,2013-05-17 15:08:00,
2013-05-17 11:13:00,74.0,62.4,30.06,South,180,0.0,1.0,67,0.00,,,0.00,615.00,VWS V14.01,2013-05-17 15:13:00,
2013-05-17 11:18:00,74.3,61.3,30.06,SW,230,1.0,1.0,64,0.00,,,0.00,640.00,VWS V14.01,2013-05-17 15:18:00,
2013-05-17 11:23:00,74.0,61.5,30.06,South,182,0.0,5.0,65,0.00,,,0.00,633.00,VWS V14.01,2013-05-17 15:23:00,
2013-05-17 11:29:00,74.1,62.0,30.06,NNW,327,0.0,4.0,66,0.00,,,0.00,715.00,VWS V14.01,2013-05-17 15:29:00,
2013-05-17 11:34:00,74.3,61.3,30.06,NW,316,0.0,1.0,64,0.00,,,0.00,765.00,VWS V14.01,2013-05-17 15:34:00,
2013-05-17 11:39:00,74.4,61.4,30.06,WSW,254,0.0,3.0,64,0.00,,,0.00,763.00,VWS V14.01,2013-05-17 15:39:00,
2013-05-17 11:44:00,74.4,61.4,30.06,WSW,254,0.0,1.0,64,0.00,,,0.00,729.00,VWS V14.01,2013-05-17 15:44:00,
2013-05-17 11:49:00,75.1,63.8,30.06,WSW,252,4.0,6.0,68,0.00,,,0.00,717.00,VWS V14.01,2013-05-17 15:49:00,
2013-05-17 11:54:00,75.2,63.5,30.06,West,272,0.0,1.0,67,0.00,,,0.00,726.00,VWS V14.01,2013-05-17 15:54:00,
2013-05-17 11:59:00,75.5,63.4,30.06,NNE,12,0.0,3.0,66,0.00,,,0.00,710.00,VWS V14.01,2013-05-17 15:59:00,
2013-05-17 12:04:00,75.8,62.8,30.06,NNE,13,0.0,1.0,64,0.00,,,0.00,745.00,VWS V14.01,2013-05-17 16:04:00,
2013-05-17 12:09:00,75.7,62.2,30.05,South,171,0.0,2.0,63,0.00,,,0.00,800.00,VWS V14.01,2013-05-17 16:09:00,
2013-05-17 12:14:00,76.1,63.5,30.05,NW,315,0.0,1.0,65,0.00,,,0.00,860.00,VWS V14.01,2013-05-17 16:14:00,
2013-05-17 12:19:00,76.4,62.9,30.05,NNW,332,0.0,4.0,63,0.00,,,0.00,840.00,VWS V14.01,2013-05-17 16:19:00,
2013-05-17 12:25:00,76.2,63.1,30.05,NNW,343,0.0,3.0,64,0.00,,,0.00,861.00,VWS V14.01,2013-05-17 16:25:00,
2013-05-17 12:30:00,76.6,64.8,30.05,NNW,341,0.0,1.0,67,0.00,,,0.00,863.00,VWS V14.01,2013-05-17 16:30:00,
2013-05-17 12:35:00,76.9,63.8,30.05,North,355,2.0,3.0,64,0.00,,,0.00,879.00,VWS V14.01,2013-05-17 16:35:00,
2013-05-17 12:40:00,77.5,65.3,30.05,ENE,57,0.0,5.0,66,0.00,,,0.00,879.00,VWS V14.01,2013-05-17 16:40:00,
2013-05-17 12:45:00,77.8,64.7,30.05,SE,126,0.0,1.0,64,0.00,,,0.00,756.00,VWS V14.01,2013-05-17 16:45:00,
2013-05-17 12:50:00,77.6,63.1,30.05,NNW,343,0.0,3.0,61,0.00,,,0.00,884.00,VWS V14.01,2013-05-17 16:50:00,
2013-05-17 12:55:00,77.0,62.5,30.05,NNW,344,0.0,1.0,61,0.00,,,0.00,853.00,VWS V14.01,2013-05-17 16:55:00,
2013-05-17 13:00:00,77.0,63.0,30.04,SE,134,0.0,3.0,62,0.00,,,0.00,877.00,VWS V14.01,2013-05-17 17:00:00,
2013-05-17 13:05:00,77.7,65.4,30.04,SE,146,3.0,3.0,66,0.00,,,0.00,900.00,VWS V14.01,2013-05-17 17:05:00,
2013-05-17 13:10:00,77.9,62.9,30.04,ESE,107,0.0,3.0,60,0.00,,,0.00,895.00,VWS V14.01,2013-05-17 17:10:00,
2013-05-17 13:15:00,77.8,63.8,30.04,ENE,69,2.0,7.0,62,0.00,,,0.00,893.00,VWS V14.01,2013-05-17 17:15:00,
2013-05-17 13:20:00,77.8,62.3,30.04,SE,144,0.0,5.0,59,0.00,,,0.00,865.00,VWS V14.01,2013-05-17 17:20:00,
2013-05-17 13:25:00,77.7,62.7,30.04,SW,218,1.0,1.0,60,0.00,,,0.00,895.00,VWS V14.01,2013-05-17 17:25:00,
2013-05-17 13:30:00,77.9,64.3,30.04,SE,144,0.0,0.0,63,0.00,,,0.00,888.00,VWS V14.01,2013-05-17 17:30:00,
2013-05-17 13:35:00,78.3,63.3,30.04,SSE,149,0.0,1.0,60,0.00,,,0.00,884.00,VWS V14.01,2013-05-17 17:35:00,
2013-05-17 13:41:00,78.5,64.4,30.03,South,178,3.0,4.0,62,0.00,,,0.00,896.00,VWS V14.01,2013-05-17 17:41:00,
2013-05-17 13:46:00,78.5,63.5,30.03,SSE,153,0.0,1.0,60,0.00,,,0.00,909.00,VWS V14.01,2013-05-17 17:46:00,
2013-05-17 13:51:00,78.7,64.1,30.03,ESE,110,0.0,1.0,61,0.00,,,0.00,896.00,VWS V14.01,2013-05-17 17:51:00,
2013-05-17 13:56:00,79.5,65.3,30.03,East,84,0.0,1.0,62,0.00,,,0.00,905.00,VWS V14.01,2013-05-17 17:56:00,
2013-05-17 14:01:00,79.6,63.5,30.03,NNE,22,0.0,4.0,58,0.00,,,0.00,893.00,VWS V14.01,2013-05-17 18:01:00,
2013-05-17 14:06:00,80.0,65.4,30.03,SE,146,0.0,0.0,61,0.00,,,0.00,891.00,VWS V14.01,2013-05-17 18:06:00,
2013-05-17 14:11:00,79.7,62.1,30.03,East,84,0.0,3.0,55,0.00,,,0.00,874.00,VWS V14.01,2013-05-17 18:11:00,
2013-05-17 14:16:00,79.5,63.4,30.03,South,188,1.0,4.0,58,0.00,,,0.00,870.00,VWS V14.01,2013-05-17 18:16:00,
2013-05-17 14:21:00,79.2,63.2,30.02,South,190,0.0,1.0,58,0.00,,,0.00,865.00,VWS V14.01,2013-05-17 18:21:00,
2013-05-17 14:26:00,79.4,62.3,30.02,WSW,252,0.0,1.0,56,0.00,,,0.00,868.00,VWS V14.01,2013-05-17 18:26:00,
2013-05-17 14:31:00,79.7,63.6,30.02,SE,141,3.0,3.0,58,0.00,,,0.00,865.00,VWS V14.01,2013-05-17 18:31:00,
2013-05-17 14:37:00,79.9,64.8,30.02,NE,40,0.0,2.0,60,0.00,,,0.00,863.00,VWS V14.01,2013-05-17 18:37:00,
2013-05-17 14:42:00,80.1,64.5,30.02,SSE,154,1.0,3.0,59,0.00,,,0.00,851.00,VWS V14.01,2013-05-17 18:42:00,
2013-05-17 14:47:00,80.1,63.5,30.02,SSW,207,2.0,4.0,57,0.00,,,0.00,856.00,VWS V14.01,2013-05-17 18:47:00,
2013-05-17 14:52:00,79.8,62.7,30.02,South,176,0.0,5.0,56,0.00,,,0.00,239.00,VWS V14.01,2013-05-17 18:52:00,
2013-05-17 14:57:00,79.6,63.0,30.01,SE,126,0.0,1.0,57,0.00,,,0.00,853.00,VWS V14.01,2013-05-17 18:57:00,
2013-05-17 15:02:00,80.1,63.5,30.01,South,186,2.0,5.0,57,0.00,,,0.00,895.00,VWS V14.01,2013-05-17 19:02:00,
2013-05-17 15:07:00,80.5,63.9,30.01,SW,219,0.0,2.0,57,0.00,,,0.00,898.00,VWS V14.01,2013-05-17 19:07:00,
2013-05-17 15:12:00,81.0,63.8,30.02,South,188,1.0,5.0,56,0.00,,,0.00,914.00,VWS V14.01,2013-05-17 19:12:00,
2013-05-17 15:17:00,81.1,63.9,30.01,SSE,157,4.0,7.0,56,0.00,,,0.00,939.00,VWS V14.01,2013-05-17 19:17:00,
2013-05-17 15:22:00,81.2,63.0,30.01,South,175,0.0,1.0,54,0.00,,,0.00,990.00,VWS V14.01,2013-05-17 19:22:00,
2013-05-17 15:27:00,81.4,62.6,30.00,South,180,0.0,3.0,53,0.00,,,0.00,413.00,VWS V14.01,2013-05-17 19:27:00,
2013-05-17 15:32:00,81.0,62.8,30.00,SSW,203,0.0,4.0,54,0.00,,,0.00,401.00,VWS V14.01,2013-05-17 19:32:00,
2013-05-17 15:38:00,80.4,61.7,30.00,South,188,4.0,5.0,53,0.00,,,0.00,301.00,VWS V14.01,2013-05-17 19:38:00,
2013-05-17 15:43:00,79.8,61.7,30.01,SSW,195,0.0,3.0,54,0.00,,,0.00,229.00,VWS V14.01,2013-05-17 19:43:00,
2013-05-17 15:48:00,79.4,61.8,30.01,South,190,0.0,1.0,55,0.00,,,0.00,229.00,VWS V14.01,2013-05-17 19:48:00,
2013-05-17 15:53:00,79.1,61.6,30.01,SSE,167,0.0,6.0,55,0.00,,,0.00,313.00,VWS V14.01,2013-05-17 19:53:00,
2013-05-17 15:58:00,79.2,61.1,30.00,South,190,2.0,5.0,54,0.00,,,0.00,548.00,VWS V14.01,2013-05-17 19:58:00,
2013-05-17 16:03:00,79.4,61.8,30.00,South,190,2.0,2.0,55,0.00,,,0.00,352.00,VWS V14.01,2013-05-17 20:03:00,
2013-05-17 16:08:00,79.6,61.5,30.00,South,171,0.0,1.0,54,0.00,,,0.00,424.00,VWS V14.01,2013-05-17 20:08:00,
2013-05-17 16:13:00,79.9,60.7,30.00,South,173,0.0,4.0,52,0.00,,,0.00,315.00,VWS V14.01,2013-05-17 20:13:00,
2013-05-17 16:18:00,80.0,59.7,29.99,SE,146,1.0,9.0,50,0.00,,,0.00,371.00,VWS V14.01,2013-05-17 20:18:00,
2013-05-17 16:23:00,80.4,61.7,29.99,East,94,1.0,4.0,53,0.00,,,0.00,800.00,VWS V14.01,2013-05-17 20:23:00,
2013-05-17 16:28:00,81.0,61.2,30.00,SSE,153,3.0,6.0,51,0.00,,,0.00,729.00,VWS V14.01,2013-05-17 20:28:00,
2013-05-17 16:33:00,81.1,60.7,30.00,SSE,167,0.0,5.0,50,0.00,,,0.00,403.00,VWS V14.01,2013-05-17 20:33:00,
2013-05-17 16:39:00,80.9,61.1,30.00,SSE,159,0.0,3.0,51,0.00,,,0.00,227.00,VWS V14.01,2013-05-17 20:39:00,
2013-05-17 16:44:00,80.6,60.8,30.00,South,171,0.0,4.0,51,0.00,,,0.00,229.00,VWS V14.01,2013-05-17 20:44:00,
2013-05-17 16:49:00,80.3,61.1,30.00,SE,125,0.0,2.0,52,0.00,,,0.00,371.00,VWS V14.01,2013-05-17 20:49:00,
2013-05-17 16:54:00,80.7,63.0,30.00,SE,146,3.0,4.0,55,0.00,,,0.00,531.00,VWS V14.01,2013-05-17 20:54:00,
2013-05-17 16:59:00,81.1,62.4,29.99,SSW,208,3.0,5.0,53,0.00,,,0.00,504.00,VWS V14.01,2013-05-17 20:59:00,
2013-05-17 17:04:00,81.3,62.5,29.99,SE,138,2.0,4.0,53,0.00,,,0.00,529.00,VWS V14.01,2013-05-17 21:04:00,
2013-05-17 17:09:00,81.5,61.1,29.99,SE,145,3.0,6.0,50,0.00,,,0.00,534.00,VWS V14.01,2013-05-17 21:09:00,
2013-05-17 17:14:00,81.6,62.3,30.00,SSE,167,1.0,6.0,52,0.00,,,0.00,487.00,VWS V14.01,2013-05-17 21:14:00,
2013-05-17 17:19:00,81.6,61.7,29.99,SE,146,1.0,4.0,51,0.00,,,0.00,464.00,VWS V14.01,2013-05-17 21:19:00,
2013-05-17 17:24:00,81.6,61.2,29.99,SSE,163,0.0,1.0,50,0.00,,,0.00,424.00,VWS V14.01,2013-05-17 21:24:00,
2013-05-17 17:29:00,81.7,60.1,29.99,South,171,1.0,2.0,48,0.00,,,0.00,436.00,VWS V14.01,2013-05-17 21:29:00,
2013-05-17 17:35:00,81.7,62.4,30.00,SSW,193,0.0,3.0,52,0.00,,,0.00,439.00,VWS V14.01,2013-05-17 21:35:00,
2013-05-17 17:40:00,81.8,61.9,29.99,South,190,1.0,4.0,51,0.00,,,0.00,408.00,VWS V14.01,2013-05-17 21:40:00,
2013-05-17 17:45:00,81.7,61.3,30.00,SSE,163,1.0,7.0,50,0.00,,,0.00,383.00,VWS V14.01,2013-05-17 21:45:00,
2013-05-17 17:50:00,81.4,61.5,30.00,South,175,4.0,6.0,51,0.00,,,0.00,172.00,VWS V14.01,2013-05-17 21:50:00,
2013-05-17 17:55:00,81.0,61.2,30.00,SSE,168,0.0,2.0,51,0.00,,,0.00,262.00,VWS V14.01,2013-05-17 21:55:00,
2013-05-17 18:00:00,80.8,61.5,30.00,SSE,168,0.0,1.0,52,0.00,,,0.00,156.00,VWS V14.01,2013-05-17 22:00:00,
2013-05-17 18:05:00,80.3,61.6,29.99,South,173,1.0,4.0,53,0.00,,,0.00,125.00,VWS V14.01,2013-05-17 22:05:00,
2013-05-17 18:10:00,80.0,60.8,30.00,South,176,0.0,3.0,52,0.00,,,0.00,91.00,VWS V14.01,2013-05-17 22:10:00,
2013-05-17 18:15:00,79.7,61.1,30.00,SSE,152,0.0,3.0,53,0.00,,,0.00,81.00,VWS V14.01,2013-05-17 22:15:00,
2013-05-17 18:20:00,79.3,61.2,29.99,SSE,153,0.0,0.0,54,0.00,,,0.00,88.00,VWS V14.01,2013-05-17 22:20:00,
2013-05-17 18:25:00,79.1,61.6,30.00,SSE,153,1.0,1.0,55,0.00,,,0.00,192.00,VWS V14.01,2013-05-17 22:25:00,
2013-05-17 18:30:00,79.0,61.5,29.99,SSE,152,0.0,1.0,55,0.00,,,0.00,139.00,VWS V14.01,2013-05-17 22:30:00,
2013-05-17 18:35:00,79.0,61.5,29.99,SSE,152,0.0,1.0,55,0.00,,,0.00,98.00,VWS V14.01,2013-05-17 22:35:00,
2013-05-17 18:40:00,79.0,61.5,30.00,SSE,153,0.0,1.0,55,0.00,,,0.00,109.00,VWS V14.01,2013-05-17 22:40:00,
2013-05-17 18:45:00,79.0,61.5,30.00,SSE,153,0.0,0.0,55,0.00,,,0.00,179.00,VWS V14.01,2013-05-17 22:45:00,
2013-05-17 18:50:00,79.0,62.0,30.00,SSE,153,0.0,0.0,56,0.00,,,0.00,116.00,VWS V14.01,2013-05-17 22:50:00,
2013-05-17 18:55:00,79.0,62.0,30.00,SSE,152,0.0,1.0,56,0.00,,,0.00,100.00,VWS V14.01,2013-05-17 22:55:00,
2013-05-17 19:00:00,78.9,60.9,30.00,SE,135,1.0,1.0,54,0.00,,,0.00,84.00,VWS V14.01,2013-05-17 23:00:00,
2013-05-17 19:05:00,78.7,61.2,30.00,SSE,151,0.0,2.0,55,0.00,,,0.00,65.00,VWS V14.01,2013-05-17 23:05:00,
2013-05-17 19:10:00,78.7,60.7,30.00,SSE,151,0.0,0.0,54,0.00,,,0.00,67.00,VWS V14.01,2013-05-17 23:10:00,
2013-05-17 19:15:00,78.7,61.2,30.00,SSE,150,0.0,0.0,55,0.00,,,0.00,58.00,VWS V14.01,2013-05-17 23:15:00,
2013-05-17 19:20:00,78.5,60.5,30.00,SSE,150,0.0,0.0,54,0.00,,,0.00,35.00,VWS V14.01,2013-05-17 23:20:00,
2013-05-17 19:25:00,78.3,60.3,30.01,SSE,151,0.0,0.0,54,0.00,,,0.00,25.00,VWS V14.01,2013-05-17 23:25:00,
2013-05-17 19:30:00,78.1,60.6,30.01,SSE,151,0.0,0.0,55,0.00,,,0.00,21.00,VWS V14.01,2013-05-17 23:30:00,
2013-05-17 19:36:00,77.8,60.4,30.01,SSE,151,0.0,0.0,55,0.00,,,0.00,18.00,VWS V14.01,2013-05-17 23:36:00,
2013-05-17 19:41:00,77.6,60.2,30.01,SSE,151,0.0,0.0,55,0.00,,,0.00,14.00,VWS V14.01,2013-05-17 23:41:00,
2013-05-17 19:46:00,77.3,60.4,30.01,SSE,151,0.0,0.0,56,0.00,,,0.00,12.00,VWS V14.01,2013-05-17 23:46:00,
2013-05-17 19:51:00,77.0,60.1,30.02,SSE,151,0.0,1.0,56,0.00,,,0.00,11.00,VWS V14.01,2013-05-17 23:51:00,
2013-05-17 19:56:00,76.7,60.3,30.02,SSE,150,0.0,0.0,57,0.00,,,0.00,9.00,VWS V14.01,2013-05-17 23:56:00,
2013-05-17 20:01:00,76.5,60.2,30.02,SSE,150,0.0,0.0,57,0.00,,,0.00,5.00,VWS V14.01,2013-05-18 00:01:00,
2013-05-17 20:06:00,76.3,60.0,30.02,SSE,150,0.0,0.0,57,0.00,,,0.00,0.00,VWS V14.01,2013-05-18 00:06:00,
2013-05-17 20:11:00,76.0,60.2,30.02,SSE,150,0.0,0.0,58,0.00,,,0.00,0.00,VWS V14.01,2013-05-18 00:11:00,
2013-05-17 20:16:00,75.8,60.5,30.03,SSE,151,0.0,0.0,59,0.00,,,0.00,0.00,VWS V14.01,2013-05-18 00:16:00,
2013-05-17 20:21:00,75.5,60.2,30.03,East,84,0.0,1.0,59,0.00,,,0.00,0.00,VWS V14.01,2013-05-18 00:21:00,
2013-05-17 20:26:00,75.1,59.8,30.03,ENE,63,2.0,3.0,59,0.00,,,0.00,0.00,VWS V14.01,2013-05-18 00:26:00,
2013-05-17 20:32:00,74.6,58.4,30.03,SE,146,0.0,1.0,57,0.00,,,0.00,0.00,VWS V14.01,2013-05-18 00:32:00,
2013-05-17 20:37:00,74.1,56.4,30.03,SE,145,0.0,4.0,54,0.00,,,0.00,0.00,VWS V14.01,2013-05-18 00:37:00,
2013-05-17 20:42:00,73.7,56.0,30.03,ESE,118,0.0,1.0,54,0.00,,,0.00,0.00,VWS V14.01,2013-05-18 00:42:00,
2013-05-17 20:47:00,73.5,55.9,30.04,SE,129,0.0,1.0,54,0.00,,,0.00,0.00,VWS V14.01,2013-05-18 00:47:00,
2013-05-17 20:52:00,73.3,55.7,30.03,ENE,74,2.0,5.0,54,0.00,,,0.00,0.00,VWS V14.01,2013-05-18 00:52:00,
2013-05-17 20:57:00,73.1,55.5,30.04,SE,126,4.0,4.0,54,0.00,,,0.00,0.00,VWS V14.01,2013-05-18 00:57:00,
2013-05-17 21:02:00,72.8,55.7,30.04,East,101,3.0,7.0,55,0.00,,,0.00,0.00,VWS V14.01,2013-05-18 01:02:00,
2013-05-17 21:07:00,72.7,55.6,30.04,SE,134,0.0,11.0,55,0.00,,,0.00,0.00,VWS V14.01,2013-05-18 01:07:00,
2013-05-17 21:12:00,72.7,55.6,30.04,SE,146,0.0,7.0,55,0.00,,,0.00,0.00,VWS V14.01,2013-05-18 01:12:00,
2013-05-17 21:17:00,72.7,55.1,30.04,SSE,150,2.0,6.0,54,0.00,,,0.00,0.00,VWS V14.01,2013-05-18 01:17:00,
2013-05-17 21:22:00,72.7,55.1,30.05,SE,146,2.0,10.0,54,0.00,,,0.00,0.00,VWS V14.01,2013-05-18 01:22:00,
2013-05-17 21:28:00,72.7,55.1,30.05,SE,144,1.0,5.0,54,0.00,,,0.00,0.00,VWS V14.01,2013-05-18 01:28:00,
2013-05-17 21:33:00,72.7,55.1,30.06,SSE,161,0.0,3.0,54,0.00,,,0.00,0.00,VWS V14.01,2013-05-18 01:33:00,
2013-05-17 21:38:00,72.6,54.5,30.06,SSE,164,1.0,8.0,53,0.00,,,0.00,0.00,VWS V14.01,2013-05-18 01:38:00,
2013-05-17 21:43:00,72.6,55.0,30.06,SE,128,0.0,3.0,54,0.00,,,0.00,0.00,VWS V14.01,2013-05-18 01:43:00,
2013-05-17 21:48:00,72.5,54.9,30.06,SSE,152,0.0,6.0,54,0.00,,,0.00,0.00,VWS V14.01,2013-05-18 01:48:00,
2013-05-17 21:53:00,72.4,54.8,30.06,South,181,0.0,5.0,54,0.00,,,0.00,0.00,VWS V14.01,2013-05-18 01:53:00,
2013-05-17 21:58:00,72.3,54.7,30.06,SE,144,0.0,5.0,54,0.00,,,0.00,0.00,VWS V14.01,2013-05-18 01:58:00,
2013-05-17 22:03:00,72.1,54.0,30.06,SSE,149,0.0,8.0,53,0.00,,,0.00,0.00,VWS V14.01,2013-05-18 02:03:00,
2013-05-17 22:08:00,72.0,54.0,30.06,SE,145,1.0,8.0,53,0.00,,,0.00,0.00,VWS V14.01,2013-05-18 02:08:00,
2013-05-17 22:13:00,71.9,53.9,30.07,SSE,155,0.0,10.0,53,0.00,,,0.00,0.00,VWS V14.01,2013-05-18 02:13:00,
2013-05-17 22:18:00,71.7,53.7,30.06,SSE,157,4.0,7.0,53,0.00,,,0.00,0.00,VWS V14.01,2013-05-18 02:18:00,
2013-05-17 22:23:00,71.5,53.5,30.07,SSE,165,2.0,5.0,53,0.00,,,0.00,0.00,VWS V14.01,2013-05-18 02:23:00,
2013-05-17 22:29:00,71.4,52.9,30.07,SE,145,2.0,5.0,52,0.00,,,0.00,0.00,VWS V14.01,2013-05-18 02:29:00,
2013-05-17 22:34:00,71.3,53.3,30.07,SE,137,0.0,4.0,53,0.00,,,0.00,0.00,VWS V14.01,2013-05-18 02:34:00,
2013-05-17 22:39:00,71.1,53.1,30.07,ENE,67,2.0,5.0,53,0.00,,,0.00,0.00,VWS V14.01,2013-05-18 02:39:00,
2013-05-17 22:44:00,71.0,53.0,30.07,NE,45,0.0,6.0,53,0.00,,,0.00,0.00,VWS V14.01,2013-05-18 02:44:00,
2013-05-17 22:49:00,70.9,52.4,30.07,SE,131,0.0,9.0,52,0.00,,,0.00,0.00,VWS V14.01,2013-05-18 02:49:00,
2013-05-17 22:54:00,70.9,52.4,30.07,SE,145,0.0,3.0,52,0.00,,,0.00,0.00,VWS V14.01,2013-05-18 02:54:00,
2013-05-17 22:59:00,70.8,52.8,30.07,South,185,1.0,1.0,53,0.00,,,0.00,0.00,VWS V14.01,2013-05-18 02:59:00,
2013-05-17 23:04:00,70.7,52.8,30.07,SW,214,1.0,1.0,53,0.00,,,0.00,0.00,VWS V14.01,2013-05-18 03:04:00,
2013-05-17 23:09:00,70.6,52.7,30.07,SW,215,0.0,1.0,53,0.00,,,0.00,0.00,VWS V14.01,2013-05-18 03:09:00,
2013-05-17 23:14:00,70.5,52.6,30.08,South,172,3.0,6.0,53,0.00,,,0.00,0.00,VWS V14.01,2013-05-18 03:14:00,
2013-05-17 23:19:00,70.4,52.5,30.07,South,178,0.0,4.0,53,0.00,,,0.00,0.00,VWS V14.01,2013-05-18 03:19:00,
2013-05-17 23:24:00,70.4,52.0,30.07,SSE,157,0.0,4.0,52,0.00,,,0.00,0.00,VWS V14.01,2013-05-18 03:24:00,
2013-05-17 23:29:00,70.3,51.9,30.07,SSE,147,0.0,5.0,52,0.00,,,0.00,0.00,VWS V14.01,2013-05-18 03:29:00,
2013-05-17 23:35:00,70.2,52.3,30.07,South,173,2.0,7.0,53,0.00,,,0.00,0.00,VWS V14.01,2013-05-18 03:35:00,
2013-05-17 23:40:00,70.1,52.2,30.08,SSW,207,0.0,8.0,53,0.00,,,0.00,0.00,VWS V14.01,2013-05-18 03:40:00,
2013-05-17 23:45:00,70.1,52.2,30.08,SW,232,0.0,4.0,53,0.00,,,0.00,0.00,VWS V14.01,2013-05-18 03:45:00,
2013-05-17 23:50:00,70.0,52.6,30.08,SW,215,0.0,6.0,54,0.00,,,0.00,0.00,VWS V14.01,2013-05-18 03:50:00,
2013-05-17 23:55:00,69.9,52.0,30.08,South,175,0.0,6.0,53,0.00,,,0.00,0.00,VWS V14.01,2013-05-18 03:55:00,